Deer Park, WA
on Sunday, December 30, 2012

Sunday
Previous Day Next Day
Daily Summary
 ActualAverageRecord
Temperature
Mean Temperature °F 25°F  
Max Temperature 25°F 31°F 43°F (2011)
Min Temperature 17°F 19°F -5°F (2003)
Degree Days
Heating Degree Days 44 40  
Month to date heating degree days 1007 1183  
Since 1 July heating degree days 2744 3186  
Cooling Degree Days 0 0  
Month to date cooling degree days 0 0  
Year to date cooling degree days 232 187  
Moisture
Dew Point 21°F   
Average Humidity 94    
Maximum Humidity 100    
Minimum Humidity 88    
Precipitation
Precipitation 0.00 in 0.09 in 0.77 in (2002)
Month to date precipitation 2.49 2.79  
Year to date precipitation 26.60 22.18  
Wind
Wind Speed 2 mph   
Max Wind Speed 10 mph   
Max Gust Speed 13 mph   
Visibility 8 miles   
Events     

Key: T is trace of precipitation, MM is missing value
Source: NWS Daily Summary
Time(PST)TemperatureDew PointHumidity Pressure Visibility Wind DirectionWind SpeedGust SpeedPrecipitationEvents Conditions
12:53 AM 18.0°F 16.0°F 92% 30.25 in 10.0 miles Calm Calm - N/A   Overcast
1:53 AM 17.1°F 15.1°F 92% 30.28 in 10.0 miles Calm Calm - N/A   Overcast
2:53 AM 18.0°F 16.0°F 92% 30.29 in 10.0 miles Calm Calm - N/A   Overcast
3:53 AM 19.0°F 17.1°F 92% 30.29 in 10.0 miles Calm Calm - N/A   Overcast
4:53 AM 19.0°F 17.1°F 92% 30.30 in 10.0 miles Calm Calm - N/A   Overcast
5:11 AM 19.4°F 17.6°F 93% 30.20 in 10.0 miles Calm Calm - N/A   Overcast
5:53 AM 19.0°F 17.1°F 92% 30.30 in 10.0 miles Calm Calm - N/A   Overcast
6:44 AM 19.4°F 17.6°F 93% 30.21 in 10.0 miles Calm Calm - N/A   Overcast
6:53 AM 19.9°F 18.0°F 92% 30.32 in 10.0 miles Calm Calm - N/A   Overcast
7:18 AM 19.4°F 17.6°F 93% 30.21 in 10.0 miles Calm Calm - N/A   Overcast
7:53 AM 21.0°F 19.0°F 92% 30.33 in 7.0 miles Calm Calm - N/A   Overcast
8:53 AM 21.9°F 19.9°F 92% 30.35 in 4.0 miles Calm Calm - N/A   Overcast
9:19 AM 21.2°F 21.2°F 100% 30.25 in 2.5 miles Calm Calm - N/A   Overcast
9:39 AM 21.2°F 21.2°F 100% 30.25 in 3.0 miles Calm Calm - N/A   Overcast
9:53 AM 21.9°F 21.0°F 96% 30.35 in 4.0 miles Calm Calm - N/A   Overcast
10:06 AM 21.2°F 21.2°F 100% 30.25 in 5.0 miles SSE 3.5 mph - N/A   Overcast
10:42 AM 23.0°F 21.2°F 93% 30.25 in 6.0 miles Calm Calm - N/A   Overcast
10:53 AM 23.0°F 21.9°F 96% 30.35 in 6.0 miles Calm Calm - N/A   Overcast
11:25 AM 24.8°F 23.0°F 93% 30.25 in 7.0 miles Calm Calm - N/A   Overcast
11:53 AM 24.1°F 23.0°F 96% 30.35 in 7.0 miles Calm Calm - N/A   Overcast
12:41 PM 24.8°F 23.0°F 93% 30.24 in 8.0 miles South 4.6 mph - N/A   Overcast
12:53 PM 25.0°F 23.0°F 92% 30.34 in 9.0 miles North - - N/A   Overcast
1:53 PM 25.0°F 23.0°F 92% 30.34 in 9.0 miles South 3.5 mph - N/A   Overcast
2:53 PM 25.0°F 23.0°F 92% 30.34 in 10.0 miles South 4.6 mph - N/A   Overcast
3:53 PM 25.0°F 23.0°F 92% 30.35 in 10.0 miles South 4.6 mph - N/A   Overcast
4:53 PM 25.0°F 23.0°F 92% 30.36 in 10.0 miles SSW 5.8 mph - N/A   Overcast
5:43 PM 24.8°F 23.0°F 93% 30.27 in 10.0 miles SSW 5.8 mph - N/A   Overcast
5:53 PM 24.1°F 23.0°F 96% 30.37 in 10.0 miles SW 6.9 mph - N/A   Overcast
6:32 PM 24.8°F 23.0°F 93% 30.27 in 6.0 miles SSW 6.9 mph - N/A   Overcast
6:53 PM 24.1°F 23.0°F 96% 30.36 in 7.0 miles South 5.8 mph - N/A   Overcast
7:29 PM 24.8°F 21.2°F 86% 30.27 in 10.0 miles SSW 5.8 mph - N/A   Overcast
7:53 PM 24.1°F 21.9°F 91% 30.36 in 10.0 miles SSW 9.2 mph - N/A   Overcast
8:53 PM 24.1°F 21.9°F 91% 30.36 in 10.0 miles SSW 5.8 mph - N/A   Overcast
9:53 PM 24.1°F 21.9°F 91% 30.36 in 10.0 miles Calm Calm - N/A   Overcast
10:22 PM 24.8°F 21.2°F 86% 30.27 in 10.0 miles Calm Calm - N/A   Overcast
10:53 PM 24.1°F 21.9°F 91% 30.38 in 10.0 miles Calm Calm - N/A   Overcast
11:53 PM 24.1°F 21.9°F 91% 30.37 in 10.0 miles SSW 3.5 mph - N/A   Overcast
Moon Phase
Dec. 30 Jan. 04 Jan. 11 Jan. 18 Jan. 26
Sunrise:07:39 AM (PST) Moon Rise:06:54 PM (PST)
Sunset:04:05 PM (PST) Moon Set:08:39 AM (PST)

Copyright © 2014 The Weather Underground, Inc.